[[{"header":{"parameterUnit":"m.s-1","parameterCategory":1,"la1":30.2991,"la2":30.254,"lo1":-89.0895,"lo2":-89.0444,"dy":0.0017,"dx":0.0017,"nx":28,"ny":28,"refTime":"2025-11-25T09:00:00:Z","depth":0,"parameterNumber":2,"parameterNumberName":"U-component_of_WINDS"},"data":[0,0,0,0,0,0,0,0,0,0,0,0,0,0,0,0,0,0,0,0,0,0,0,0,0,0,0,0,0,0,0,0,0,0,0,0,0,0,0,0,0,0,0,0,0,0,0,0,0,0,0,0,0,0,0,0,0,0,-0.319,-0.319,0,-0.3212,-0.3212,-0.3212,-0.3216,-0.3216,-0.3216,-0.3215,-0.3239,-0.324,-0.3241,0,0,0,0,0,0,0,0,0,0,0,0,0,-0.3153,-0.3153,-0.319,-0.319,-0.319,-0.3212,-0.3212,-0.3212,-0.3216,-0.3216,-0.3216,-0.3215,-0.3239,-0.324,-0.3241,0,0,0,0,0,0,0,0,0,0,0,0,0,-0.3171,-0.3153,-0.319,-0.3195,-0.3195,-0.3212,-0.3212,-0.3212,-0.3216,-0.3216,-0.3215,-0.3215,-0.3239,-0.324,-0.3241,-0.3255,0,0,-0.3245,-0.3246,0,0,0,0,0,0,0,0,-0.317,-0.3172,-0.3194,-0.3194,-0.3195,-0.3211,-0.3208,-0.3227,-0.3216,-0.3208,-0.3215,-0.3215,-0.323,-0.3232,-0.3237,-0.3256,-0.3257,-0.3245,-0.3246,-0.3246,-0.3247,0,0,0,0,0,0,0,-0.3169,-0.3172,-0.3198,-0.3194,-0.3195,-0.3196,-0.3199,-0.3211,-0.3221,-0.3209,-0.3209,-0.3212,-0.3231,-0.3236,-0.3238,-0.3257,-0.3245,-0.3246,-0.3247,-0.3247,-0.3289,-0.3289,0,0,0,0,0,0,-0.3166,-0.317,-0.3198,-0.3199,-0.3182,-0.3197,-0.32,-0.3206,-0.322,-0.3222,-0.3212,-0.3212,-0.3234,-0.3236,-0.3238,-0.3255,-0.3246,-0.3248,-0.3248,-0.3288,-0.3289,-0.3289,0,0,0,0,0,0,-0.3166,-0.3169,-0.3197,-0.3185,-0.3189,-0.3198,-0.3205,-0.3207,-0.3212,-0.3223,-0.3225,-0.3215,-0.3234,-0.3237,-0.3251,-0.3256,-0.3248,-0.3249,-0.3288,-0.3288,-0.3289,-0.3289,0,0,0,0,0,0,-0.3164,-0.3168,-0.3173,-0.3185,-0.3189,-0.3208,-0.3205,-0.3207,-0.3214,-0.3214,-0.3227,-0.3228,-0.3234,-0.3249,-0.3252,-0.3258,-0.325,-0.3287,-0.3288,-0.3289,-0.3289,-0.329,-0.3291,0,0,0,0,0,-0.3163,-0.3173,-0.3173,-0.3177,-0.3195,-0.3208,-0.3211,-0.3216,-0.3214,-0.3219,-0.3226,-0.3228,-0.3255,-0.325,-0.3254,-0.326,-0.3287,-0.3288,-0.3289,-0.3288,-0.329,-0.3291,0,0,0,0,0,0,-0.3162,-0.3174,-0.3175,-0.3189,-0.3197,-0.3209,-0.3216,-0.3217,-0.3227,-0.3227,-0.3234,-0.3237,-0.3251,-0.3257,-0.3251,-0.3274,-0.3271,-0.3273,-0.327,-0.3271,-0.3272,-0.327,-0.3251,0,0,0,0,0,-0.3163,-0.3172,-0.3183,-0.3194,-0.3198,-0.3206,-0.3212,-0.3215,-0.3225,-0.3229,-0.3237,-0.3247,-0.3257,-0.3264,-0.3275,-0.329,-0.3293,-0.3296,-0.3297,-0.3297,-0.3299,-0.3308,-0.3309,-0.3292,-0.3292,-0.3292,0,0,-0.3166,-0.3174,-0.3179,-0.3194,-0.3201,-0.3211,-0.3209,-0.322,-0.3227,-0.3231,-0.3244,-0.3251,-0.3262,-0.3276,-0.3283,-0.3282,-0.3304,-0.3298,-0.3299,-0.33,-0.3309,-0.331,-0.3312,-0.3292,-0.3292,-0.3292,0,0,-0.3176,-0.3182,-0.3192,-0.32,-0.321,-0.3216,-0.3218,-0.323,-0.3234,-0.3247,-0.325,-0.326,-0.3278,-0.3286,-0.3292,-0.3306,-0.3308,-0.3309,-0.3314,-0.3322,-0.3324,-0.3325,-0.333,-0.3332,-0.331,-0.331,-0.331,0,-0.3178,-0.3193,-0.3198,-0.3208,-0.3215,-0.3218,-0.3228,-0.3235,-0.3249,-0.3254,-0.3252,-0.3275,-0.3283,-0.33,-0.3303,-0.3308,-0.3311,-0.3308,-0.3323,-0.3324,-0.3326,-0.3331,-0.3333,-0.331,-0.331,-0.331,-0.331,0,-0.3195,-0.3205,-0.3212,-0.3225,-0.3232,-0.3243,-0.325,-0.3257,-0.326,-0.3265,-0.3279,-0.3289,-0.3302,-0.3306,-0.3309,-0.3323,-0.3322,-0.3322,-0.3319,-0.3327,-0.3332,-0.3334,-0.3311,-0.3311,-0.3311,-0.3311,0,0,-0.3205,-0.322,-0.3223,-0.3229,-0.3241,-0.3249,-0.326,-0.3272,-0.3278,-0.3288,-0.3297,-0.3313,-0.3312,-0.332,-0.3324,-0.3331,-0.3342,-0.333,-0.333,-0.3332,-0.3359,-0.336,-0.3362,-0.3343,-0.3344,-0.3344,-0.3358,0,-0.3217,-0.3236,-0.3241,-0.3257,-0.3267,-0.327,-0.3279,-0.3288,-0.3294,-0.3304,-0.331,-0.3321,-0.332,-0.3324,-0.3332,-0.3339,-0.3347,-0.3338,-0.3353,-0.3353,-0.335,-0.3364,-0.3365,-0.3378,-0.336,-0.336,-0.3361,0,-0.3234,-0.3243,-0.326,-0.3271,-0.3276,-0.3284,-0.3295,-0.3304,-0.3315,-0.3318,-0.3326,-0.333,-0.3342,-0.3338,-0.3355,-0.3349,-0.3355,-0.336,-0.336,-0.3362,-0.3358,-0.3367,-0.3382,-0.3384,-0.3364,-0.3363,-0.3363,0,-0.324,-0.3257,-0.327,-0.3275,-0.3288,-0.3294,-0.3299,-0.3309,-0.3316,-0.3326,-0.3331,-0.3343,-0.3349,-0.3359,-0.3365,-0.3362,-0.3382,-0.3379,-0.3386,-0.3386,-0.3391,-0.339,-0.3407,-0.3394,-0.3394,-0.3394,-0.3394,0,-0.3253,-0.3264,-0.3273,-0.328,-0.3292,-0.3298,-0.331,-0.3316,-0.3325,-0.3334,-0.3338,-0.3347,-0.3355,-0.3365,-0.337,-0.3384,-0.3387,-0.3391,-0.3392,-0.3391,-0.339,-0.3396,-0.3395,-0.3394,-0.3394,-0.3394,-0.3394,0,-0.3263,-0.3269,-0.3283,-0.3294,-0.3297,-0.3305,-0.3315,-0.3323,-0.3329,-0.3341,-0.3344,-0.3353,-0.3366,-0.3373,-0.3389,-0.3392,-0.3408,-0.3408,-0.3404,-0.3405,-0.3412,-0.3412,-0.3434,-0.3437,-0.342,-0.3421,-0.3421,0,-0.3271,-0.3279,-0.3291,-0.3297,-0.3303,-0.3313,-0.332,-0.3326,-0.3334,-0.3346,-0.3353,-0.3365,-0.3375,-0.3395,-0.3403,-0.3415,-0.3417,-0.3424,-0.3419,-0.3417,-0.3418,-0.3417,-0.3419,-0.3425,-0.3425,-0.3425,-0.3425,0,-0.3286,-0.3288,-0.3298,-0.3309,-0.3317,-0.3326,-0.3335,-0.334,-0.3347,-0.3355,-0.3368,-0.3376,-0.3391,-0.3404,-0.3417,-0.3423,-0.3426,-0.3426,-0.3429,-0.3428,-0.3425,-0.3428,-0.3407,-0.3426,-0.3426,-0.3426,-0.3426,-0.3426,-0.3295,-0.3303,-0.3312,-0.3323,-0.333,-0.3338,-0.3347,-0.3353,-0.3363,-0.3376,-0.3379,-0.3392,-0.3403,-0.342,-0.3427,-0.3438,-0.3437,-0.344,-0.3441,-0.3442,-0.3443,-0.3423,-0.344,-0.344,-0.344,-0.344,-0.344,0,-0.331,-0.3317,-0.3326,-0.3338,-0.3347,-0.3348,-0.3358,-0.3365,-0.3376,-0.3385,-0.3395,-0.341,-0.3422,-0.3431,-0.3444,-0.3451,-0.3452,-0.3454,-0.3454,-0.3455,-0.3443,-0.3439,-0.3452,-0.3452,-0.3452,-0.3452,-0.3452,-0.3452,-0.3319,-0.3332,-0.3336,-0.3353,-0.3359,-0.3371,-0.3377,-0.3385,-0.3392,-0.3408,-0.3418,-0.3424,-0.3433,-0.3446,-0.3458,-0.346,-0.3465,-0.3467,-0.347,-0.3458,-0.3456,-0.3455,-0.3452,-0.3467,-0.3468,-0.3482,-0.3482,-0.3482]},{"header":{"parameterUnit":"m.s-1","parameterCategory":1,"la1":30.2991,"la2":30.254,"lo1":-89.0895,"lo2":-89.0444,"dy":0.0017,"dx":0.0017,"nx":28,"ny":28,"refTime":"2025-11-25T09:00:00:Z","depth":0,"parameterNumber":3,"parameterNumberName":"V-component_of_WINDS"},"data":[0,0,0,0,0,0,0,0,0,0,0,0,0,0,0,0,0,0,0,0,0,0,0,0,0,0,0,0,0,0,0,0,0,0,0,0,0,0,0,0,0,0,0,0,0,0,0,0,0,0,0,0,0,0,0,0,0,0,6.1862,6.1864,0,6.2009,6.201,6.2012,6.2008,6.2006,6.2004,6.2002,6.215,6.2155,6.2161,0,0,0,0,0,0,0,0,0,0,0,0,0,6.1579,6.1584,6.1862,6.1864,6.1866,6.2008,6.201,6.2012,6.2009,6.2006,6.2004,6.2002,6.2148,6.2155,6.2161,0,0,0,0,0,0,0,0,0,0,0,0,0,6.1711,6.1586,6.1862,6.1881,6.1885,6.2008,6.201,6.2013,6.2009,6.2006,6.2003,6.2,6.2145,6.2154,6.2162,6.2275,0,0,6.2189,6.2193,0,0,0,0,0,0,0,0,6.1704,6.1721,6.1877,6.188,6.1884,6.1987,6.1964,6.2101,6.201,6.1962,6.2002,6.1999,6.2098,6.211,6.2144,6.2282,6.2288,6.219,6.2195,6.2199,6.2201,0,0,0,0,0,0,0,6.1694,6.1715,6.192,6.1879,6.1883,6.1882,6.1898,6.199,6.2045,6.1966,6.1966,6.1983,6.2099,6.2136,6.2147,6.2291,6.2189,6.2197,6.2202,6.2206,6.2531,6.2534,0,0,0,0,0,0,6.1681,6.1708,6.1915,6.1924,6.1785,6.189,6.1907,6.1957,6.2044,6.2054,6.1986,6.1983,6.2122,6.2137,6.2153,6.2293,6.2198,6.2207,6.2212,6.2528,6.2532,6.2536,0,0,0,0,0,0,6.1675,6.17,6.1909,6.1816,6.1843,6.1898,6.1954,6.1961,6.1998,6.2059,6.2068,6.2013,6.2121,6.214,6.2246,6.2298,6.221,6.2218,6.2524,6.2529,6.2534,6.2572,0,0,0,0,0,0,6.1667,6.1698,6.1741,6.1817,6.1848,6.2,6.1957,6.1966,6.2013,6.2011,6.2087,6.2097,6.212,6.2233,6.2254,6.2308,6.2225,6.2519,6.2526,6.2532,6.2566,6.2578,6.2588,0,0,0,0,0,6.1657,6.1745,6.1744,6.1769,6.1904,6.2003,6.2021,6.2046,6.2017,6.2062,6.2101,6.2094,6.2288,6.2243,6.2268,6.2325,6.2516,6.2524,6.2532,6.2562,6.2576,6.2588,0,0,0,0,0,0,6.1673,6.1755,6.1755,6.187,6.193,6.2003,6.2059,6.206,6.2129,6.2123,6.2151,6.2168,6.2274,6.2309,6.2258,6.244,6.2398,6.2411,6.2413,6.2427,6.2437,6.2427,6.2232,0,0,0,0,0,6.169,6.1765,6.1832,6.1928,6.1958,6.2004,6.2048,6.2063,6.2125,6.215,6.2197,6.2258,6.2333,6.2381,6.2453,6.2571,6.2589,6.2622,6.2633,6.2641,6.2653,6.272,6.2737,6.2561,6.2561,6.2561,0,0,6.1725,6.178,6.1825,6.1932,6.198,6.2058,6.2025,6.2107,6.2165,6.2163,6.2266,6.2302,6.2372,6.2485,6.2536,6.2517,6.2705,6.2651,6.2658,6.2665,6.273,6.2746,6.2761,6.2566,6.2566,6.2565,0,0,6.183,6.1878,6.1964,6.2014,6.2088,6.2118,6.2138,6.2212,6.2237,6.2341,6.2342,6.241,6.2537,6.2588,6.263,6.2756,6.2754,6.2779,6.2835,6.29,6.2914,6.2927,6.2974,6.299,6.279,6.279,6.279,0,6.1865,6.1982,6.2008,6.2092,6.214,6.2143,6.2231,6.2277,6.237,6.2403,6.238,6.2542,6.2589,6.2715,6.2746,6.2779,6.2805,6.2771,6.291,6.2923,6.2935,6.298,6.2998,6.2792,6.2792,6.2792,6.2792,0,6.2022,6.2103,6.2163,6.2256,6.231,6.2395,6.2434,6.2486,6.2496,6.2529,6.2636,6.2692,6.2777,6.2807,6.2817,6.2935,6.2922,6.2904,6.2864,6.2954,6.2997,6.3015,6.2796,6.2795,6.2795,6.2794,0,0,6.2141,6.2248,6.227,6.2313,6.2395,6.2458,6.2544,6.2628,6.2673,6.2737,6.281,6.2919,6.2905,6.2953,6.2968,6.3025,6.3125,6.3002,6.3004,6.3024,6.3261,6.3275,6.3295,6.3123,6.3126,6.3129,6.3256,0,6.2256,6.241,6.2437,6.2571,6.2647,6.2652,6.2726,6.2785,6.2818,6.2887,6.2923,6.3001,6.2974,6.3004,6.306,6.3101,6.3173,6.3092,6.3192,6.3195,6.3177,6.3317,6.3331,6.3449,6.3273,6.3275,6.3278,0,6.2411,6.2482,6.2624,6.2699,6.2732,6.2799,6.2879,6.2945,6.3012,6.3032,6.3087,6.3097,6.3186,6.3141,6.3265,6.3209,6.3252,6.3278,6.3283,6.3295,6.3243,6.3334,6.3486,6.3505,6.3304,6.3302,6.33,0,6.2486,6.2617,6.272,6.2756,6.2845,6.2892,6.2931,6.2996,6.3045,6.3115,6.3148,6.3226,6.327,6.3331,6.3362,6.3325,6.3485,6.3441,6.3505,6.3505,6.354,6.3537,6.3703,6.3564,6.3563,6.3563,6.3563,0,6.2614,6.2701,6.2755,6.2819,6.2917,6.2947,6.3043,6.3081,6.3139,6.321,6.3217,6.3284,6.332,6.3391,6.3416,6.3517,6.3535,6.3555,6.3561,6.3555,6.3553,6.3585,6.3578,6.3568,6.3567,6.3566,6.3565,0,6.2715,6.2754,6.2867,6.2943,6.2964,6.3034,6.3098,6.316,6.3193,6.3283,6.3306,6.3358,6.3443,6.3479,6.3583,6.36,6.3716,6.3714,6.3694,6.3696,6.3759,6.3753,6.3952,6.398,6.382,6.3822,6.3823,0,6.2794,6.2862,6.2946,6.2995,6.3036,6.3114,6.3166,6.3197,6.3251,6.3334,6.3386,6.3471,6.3542,6.3677,6.3724,6.3804,6.3806,6.387,6.3818,6.3812,6.381,6.3806,6.3814,6.388,6.3882,6.3883,6.3884,0,6.2932,6.2949,6.3023,6.3105,6.3167,6.3233,6.3297,6.3336,6.3378,6.3437,6.3526,6.358,6.3688,6.3773,6.3857,6.3896,6.3898,6.39,6.392,6.3916,6.3902,6.3913,6.3722,6.3896,6.3895,6.3894,6.3893,6.3893,6.3026,6.3088,6.3158,6.3241,6.3293,6.3353,6.3416,6.3458,6.3532,6.3623,6.3637,6.3732,6.3798,6.3911,6.3954,6.4029,6.4013,6.404,6.4047,6.4054,6.406,6.3889,6.4043,6.4043,6.4043,6.4043,6.4042,0,6.3167,6.3212,6.3288,6.3379,6.3445,6.3441,6.3513,6.3568,6.3652,6.3714,6.3784,6.3886,6.3969,6.4023,6.4107,6.4157,6.416,6.4178,6.4176,6.4185,6.4068,6.4044,6.4174,6.4174,6.4174,6.4174,6.4174,6.4174,6.3248,6.3353,6.3378,6.3509,6.3553,6.3647,6.3689,6.3745,6.3795,6.391,6.398,6.4014,6.4074,6.4163,6.424,6.4253,6.4285,6.4304,6.4317,6.4207,6.4193,6.418,6.4158,6.431,6.4311,6.4429,6.443,6.4431]}]]